Overview Statistics Trail Chart Weather Telemetry Raw packets
 

This is the latest recevied weather packets stored in our database for station/object EA3CH. If no packets are shown the sender has not sent any weather packets the latest 10 day(s).

<< 15 16 17 18 19 20 21 >>
Time Temp. Humidity Pressure Rain* Wind** Luminosity Snow
1788235204 18.33° C 99% 1021.6 hPa 0 mm - 0 W/m² -
1788234304 18.89° C 98% 1021.6 hPa 0 mm - 0 W/m² -
1788233405 19.44° C 87% 1021.5 hPa 0 mm - 0 W/m² -
1788233404 19.44° C 99% 1021.7 hPa 0 mm - 0 W/m² -
1788232505 19.44° C 88% 1021.5 hPa 0 mm - 0 W/m² -
1788232504 19.44° C 99% 1021.8 hPa 0 mm - 0 W/m² -
1788231605 19.44° C 88% 1021.7 hPa 0 mm - 0 W/m² -
1788231603 19.44° C 100% 1022 hPa 0 mm - 0 W/m² -
1788230704 18.89° C 99% 1022 hPa 0 mm - 0 W/m² -
1788229803 19.44° C 99% 1022.1 hPa 0 mm - 0 W/m² -
1788228906 19.44° C 88% 1022.1 hPa 0 mm - 0 W/m² -
1788228004 19.44° C 87% 1022.3 hPa 0 mm - 0 W/m² -
1788228004 19.44° C 98% 1022.5 hPa 0 mm - 0 W/m² -
1788227106 19.44° C 87% 1022.3 hPa 0 mm - 0 W/m² -
1788227103 19.44° C 97% 1022.5 hPa 0 mm - 0 W/m² -
1788226206 20° C 88% 1022.2 hPa 0 mm - 0 W/m² -
1788226204 20° C 98% 1022.4 hPa 0 mm - 0 W/m² -
1788225304 20° C 98% 1022.5 hPa 0 mm - 0 W/m² -
1788224405 20° C 87% 1022.3 hPa 0 mm - 0 W/m² -
1788224404 20° C 98% 1022.6 hPa 0 mm - 0 W/m² -
1788223505 20° C 88% 1022.4 hPa 0 mm - 0 W/m² -
1788223503 20° C 98% 1022.6 hPa 0 mm - 0 W/m² -
1788222606 20° C 88% 1022.2 hPa 0 mm - 0 W/m² -
1788222604 20° C 98% 1022.4 hPa 0 mm - 0 W/m² -
1788221706 20° C 88% 1022.4 hPa 0 mm - 0 W/m² -

* Rain latest hour (hover to see other rain measurements)
** Current wind speed in m/s (hover to see current wind gust speed)